Location: La Fredeussais
(48.1780°N, 1.3980°W)
Time: 09:33:00
(UTC+00:00)

X-37B - Pass Details

Date: 09 May 2021
Orbit: 386 x 389 km, 45.0° (Epoch: 10 June)

Event Time Altitude Azimuth Distance (km) Brightness Sun altitude
Rises 20:16:04 0° 265° (W) 2,273 5.3 -7.2°
Reaches altitude 10° 20:18:11 10° 259° (W) 1,417 4.1 -7.5°
Maximum altitude 20:21:15 45° 186° (S) 538 1.1 -7.9°
Enters shadow 20:24:11 11° 112° (ESE) 1,363 2.7 -8.3°
